星链-2713 (STARLINK-2713 )

导读

STARLINK-2713是美国SpaceX公司星链(Starlink)星座的一员,于北京时间2021年5月15日发射升空。它运行在近地轨道,属于星链第一代卫星,核心任务为参与构建全球卫星互联网,为偏远、网络覆盖不足区域提供高速低延迟的宽带服务,助力缩小数字鸿沟,支撑全球全域互联。作为星链大规模组网发射批次中的一员,它进一步推进了星链星座全球覆盖的部署进程,是SpaceX构建近地轨道巨型卫星星座的重要组成部分。

Basic Information
目录编号:
48602
目录名称:
STARLINK-2713
国际标识:
2021-041BB
轨道中心:
EARTH
卫星名称:
星链-2713
卫星全名:
星链-2713 (STARLINK-2713 )
卫星状态:
在轨 (已飞行1938 天)
发射日期:
2021-05-15 UTC
国别 :
美国 (US)
星等 :
--
Orbit Information
数据来源 国际轨道数据
星历时间: 2026-09-02T01:17:46+0800
2天前
查看轨道信息
半长轴: 6848.867km
偏心率: 0.0001057
轨道倾角: 53.160°
近地点辐角 92.562°
升交点赤经 14.646°
平近点角 267.550°
近地点: 470.006km
远地点: 471.454km
周期: 94.013分钟
每日圈数: 15.317035
Detailed Information
固有亮度:
5
最大亮度:
2.5
卫星平台:
Starlink V1.0
覆盖范围:
全球
运营商:
太空探索技术公司
运营商所在国:
美国
制造商(研发单位):
太空探索技术公司
制造商所在国:
美国
使用方式:
暂无
Satellite Introduction
星链(Starlink)计划是由太空探索技术公司(SpaceX)提出的一个巨型低轨卫星互联网星座项目,计划在2019年至2024年间在太空搭建由约1.2万颗卫星组成的“星链”网络,其中1584颗将部署在地球上空550千米处的近地轨道,并从2020年开始工作。该卫星仍在工作。
2D Orbit Map
3D Orbit Map
Orbit Altitude Analysis Chart
Orbit Inclination Analysis Chart
Orbit Comprehensive Analysis Chart
View Comprehensive Chart
Conjunction Data List
Event ID Objects TCA Miss Dist (km) Collision Risk Probability Collision Risk Index (CRI) Action
CDM_260830-151404-860206-488022
OBJECT E (64880)
2026-08-30T
15:14:53+0000
2.242 km
极远距离
2.175253E-6 低风险 0.42
CDM_260905-035304-860206-968321
2026-09-05T
03:53:32+0000
2.254 km
极远距离
1.861033E-6 低风险 0.4
CDM_260904-181404-860206-802221
2026-09-04T
18:14:09+0000
2.811 km
极远距离
1.447515E-6 低风险 0.38
CDM_260904-060004-860206-518721
2026-09-04T
06:00:54+0000
2.863 km
极远距离
1.302179E-6 低风险 0.37
CDM_260903-195004-860206-971221
2026-09-03T
19:50:47+0000
2.709 km
极远距离
1.264022E-6 低风险 0.37
CDM_260903-062504-860206-890021
2026-09-03T
06:25:05+0000
2.721 km
极远距离
1.210505E-6 低风险 0.37
CDM_260905-083904-860206-764821
2026-09-05T
08:39:25+0000
2.932 km
极远距离
1.117433E-6 低风险 0.36